TimeEST,TemperatureF,Dew PointF,Humidity,Sea Level PressureIn,VisibilityMPH,Wind Direction,Wind SpeedMPH,Gust SpeedMPH,PrecipitationIn,Events,Conditions,WindDirDegrees,DateUTC
12:54 AM,34.0,26.1,73,30.37,-9999.0,WNW,11.5,-,N/A,,Unknown,290,2013-01-09 05:54:00
1:54 AM,34.0,25.0,70,30.38,-9999.0,NW,11.5,-,N/A,,Unknown,310,2013-01-09 06:54:00
2:54 AM,34.0,24.1,67,30.38,-9999.0,NNW,6.9,-,N/A,,Unknown,330,2013-01-09 07:54:00
3:54 AM,34.0,25.0,70,30.38,-9999.0,Calm,Calm,-,N/A,,Unknown,0,2013-01-09 08:54:00
4:54 AM,34.0,24.1,67,30.38,-9999.0,SW,3.5,-,N/A,,Unknown,230,2013-01-09 09:54:00
5:54 AM,32.0,24.1,73,30.38,-9999.0,West,4.6,-,N/A,,Unknown,260,2013-01-09 10:54:00
6:54 AM,30.9,25.0,79,30.40,-9999.0,West,5.8,-,N/A,,Unknown,260,2013-01-09 11:54:00
7:54 AM,34.0,24.1,67,30.40,-9999.0,West,4.6,-,N/A,,Unknown,280,2013-01-09 12:54:00
8:54 AM,35.1,24.1,64,30.39,-9999.0,Calm,Calm,-,N/A,,Unknown,0,2013-01-09 13:54:00
9:54 AM,39.0,24.1,55,30.38,-9999.0,South,4.6,-,N/A,,Unknown,190,2013-01-09 14:54:00
10:54 AM,37.9,24.1,57,30.35,-9999.0,SSW,5.8,-,N/A,,Unknown,200,2013-01-09 15:54:00
11:54 AM,37.9,27.0,65,30.29,-9999.0,South,9.2,-,N/A,,Unknown,170,2013-01-09 16:54:00
12:54 PM,39.9,26.1,58,30.23,-9999.0,SSW,12.7,18.4,N/A,,Unknown,200,2013-01-09 17:54:00
1:54 PM,41.0,27.0,57,30.23,-9999.0,SW,13.8,-,N/A,,Unknown,230,2013-01-09 18:54:00
2:54 PM,41.0,28.0,60,30.17,-9999.0,South,17.3,23.0,N/A,,Unknown,190,2013-01-09 19:54:00
3:54 PM,41.0,30.0,65,30.14,-9999.0,South,17.3,24.2,N/A,,Unknown,190,2013-01-09 20:54:00
4:54 PM,39.9,30.9,70,30.07,-9999.0,SSW,20.7,34.5,N/A,,Unknown,200,2013-01-09 21:54:00
5:07 PM,39.9,30.9,70,30.02,-9999.0,SSW,19.6,27.6,N/A,,Unknown,210,2013-01-09 22:07:00
5:54 PM,41.0,33.1,73,30.03,-9999.0,SSW,21.9,27.6,N/A,,Unknown,200,2013-01-09 22:54:00
6:54 PM,41.0,33.1,73,30.03,-9999.0,SW,23.0,28.8,N/A,,Unknown,220,2013-01-09 23:54:00
7:54 PM,42.1,33.1,70,30.04,-9999.0,WSW,17.3,32.2,N/A,,Unknown,240,2013-01-10 00:54:00
8:54 PM,42.1,33.1,70,30.04,-9999.0,West,17.3,28.8,N/A,,Unknown,260,2013-01-10 01:54:00
9:54 PM,42.1,30.9,65,30.04,-9999.0,West,24.2,34.5,N/A,,Unknown,260,2013-01-10 02:54:00
10:54 PM,42.1,30.0,62,30.06,-9999.0,West,20.7,28.8,N/A,,Unknown,270,2013-01-10 03:54:00
11:54 PM,42.1,26.1,53,30.06,-9999.0,West,19.6,33.4,N/A,,Unknown,270,2013-01-10 04:54:00